This demonstration page uses our WeatherBlox Daily Observations layout. Learn more.

Hourly Observations for October 30, 2018

Temp ( °F °C ) Dew Point ( °F °C ) Humidity (%) Winds ( mph kmh ) Pressure ( in mb ) Visibility ( mi km ) Precip ( " mm )
12:15 am 00:15 Clear 52 11.1 49 9.6 91 91 NNW 16 26 29.77 1008 10 16.09344 0 0
12:35 am 00:35 Clear 53 11.4 46 7.6 78 78 N 20 31 29.8 1009 10 16.09344 0 0
12:55 am 00:55 Clear 52 10.9 44 6.4 74 74 N 21 33 29.77 1008 10 16.09344 0 0
1:15 am 01:15 Clear 51 10.6 42 5.6 71 71 N 17 28 29.83 1010 10 16.09344 0 0
1:35 am 01:35 Clear 50 10.2 41 5 70 70 N 17 28 29.83 1010 10 16.09344 0 0
1:55 am 01:55 Clear 50 9.8 41 4.8 71 71 N 17 28 29.83 1010 10 16.09344 0 0
2:15 am 02:15 Clear 49 9.6 40 4.2 69 69 N 22 35 29.83 1010 10 16.09344 0 0
2:35 am 02:35 Clear 48 9 39 4 71 71 N 15 24 29.83 1010 10 16.09344 0 0
2:55 am 02:55 Clear 48 8.7 39 3.8 72 72 N 17 28 29.83 1010 10 16.09344 0 0
3:15 am 03:15 Clear 47 8.5 39 4 74 74 N 16 26 29.83 1010 10 16.09344 0 0
3:35 am 03:35 Clear 47 8.1 39 4.1 76 76 N 12 19 29.85 1011 10 16.09344 0 0
3:55 am 03:55 Clear 47 8.1 40 4.5 78 78 N 14 22 29.85 1011 10 16.09344 0 0
4:15 am 04:15 Clear 46 8 40 4.6 79 79 N 13 20 29.91 1013 10 16.09344 0 0
4:35 am 04:35 Clear 46 7.8 41 5 83 83 N 15 24 29.91 1013 10 16.09344 0 0
4:55 am 04:55 Clear 46 7.8 41 5 83 83 N 16 26 29.91 1013 10 16.09344 0 0
5:15 am 05:15 Clear 46 7.5 41 5.1 85 85 N 14 22 29.91 1013 10 16.09344 0 0
5:35 am 05:35 Clear 46 7.5 41 5.1 85 85 N 13 20 29.94 1014 10 16.09344 0 0
5:55 am 05:55 Clear 45 7.4 41 5 85 85 N 12 19 29.94 1014 10 16.09344 0 0
6:15 am 06:15 Clear 46 7.5 41 5 84 84 N 12 19 29.94 1014 10 16.09344 0 0
6:35 am 06:35 Clear 45 7.4 41 4.9 84 84 N 12 19 29.94 1014 10 16.09344 0 0
6:55 am 06:55 Clear 45 7.3 40 4.7 84 84 N 14 22 29.94 1014 10 16.09344 0 0
7:15 am 07:15 Clear 45 7.2 40 4.6 84 84 N 15 24 29.94 1014 10 16.09344 0 0
7:35 am 07:35 Clear 45 7.1 40 4.6 84 84 N 14 22 29.97 1015 10 16.09344 0 0
7:55 am 07:55 Clear 45 7 40 4.6 85 85 N 13 20 29.97 1015 10 16.09344 0 0
8:15 am 08:15 Sunny 45 7 40 4.7 85 85 N 14 22 29.97 1015 10 16.09344 0 0
8:35 am 08:35 Sunny 45 7.2 41 4.8 85 85 N 15 24 29.97 1015 10 16.09344 0 0
8:55 am 08:55 Sunny 45 7.3 40 4.6 83 83 N 14 22 29.97 1015 10 16.09344 0 0
9:15 am 09:15 Sunny 46 7.6 41 4.9 83 83 N 14 22 30 1016 10 16.09344 0 0
9:35 am 09:35 Sunny 46 7.8 41 5 83 83 N 13 20 30 1016 10 16.09344 0 0
9:55 am 09:55 Sunny 46 8 41 5 82 82 N 14 22 30 1016 10 16.09344 0 0
10:15 am 10:15 Sunny 47 8.3 41 5.1 80 80 N 13 20 30.03 1017 10 16.09344 0 0
10:35 am 10:35 Sunny 47 8.6 41 5.1 79 79 N 14 22 30.03 1017 10 16.09344 0 0
10:55 am 10:55 Sunny 48 9 41 5.1 77 77 N 18 30 30.03 1017 10 16.09344 0 0
11:15 am 11:15 Sunny 49 9.3 41 5.1 75 75 N 18 30 30 1016 10 16.09344 0 0
11:35 am 11:35 Sunny 49 9.7 42 5.3 74 74 N 14 22 30 1016 10 16.09344 0 0
11:55 am 11:55 Sunny 50 9.8 42 5.6 75 75 N 15 24 30 1016 10 16.09344 0 0
12:15 pm 12:15 Partly Cloudy 50 10 42 5.3 73 73 N 14 22 30 1016 10 16.09344 0 0
12:35 pm 12:35 Partly Cloudy 50 10.2 41 5.2 71 71 N 18 30 30 1016 10 16.09344 0 0
12:55 pm 12:55 Mostly Cloudy 50 10.1 41 5 71 71 N 18 30 30 1016 10 16.09344 0 0
1:15 pm 13:15 Mostly Cloudy 50 10.2 41 4.8 69 69 N 17 28 30 1016 10 16.09344 0 0
1:35 pm 13:35 Mostly Cloudy 51 10.8 40 4.7 66 66 N 16 26 30 1016 10 16.09344 0 0
1:55 pm 13:55 Partly Cloudy 52 11.1 40 4.4 64 64 N 16 26 30 1016 10 16.09344 0 0
2:15 pm 14:15 Sunny 52 11.3 38 3.5 59 59 N 14 22 30 1016 10 16.09344 0 0
2:35 pm 14:35 Sunny 53 11.6 38 3.6 58 58 N 17 28 29.97 1015 10 16.09344 0 0
2:55 pm 14:55 Partly Cloudy 53 11.6 38 3.6 58 58 N 17 28 29.97 1015 10 16.09344 0 0
3:15 pm 15:15 Partly Cloudy 53 11.5 37 3 56 56 NNE 17 28 29.97 1015 10 16.09344 0 0
3:35 pm 15:35 Partly Cloudy 54 12 36 2.2 51 51 NNE 18 30 29.97 1015 10 16.09344 0 0
3:55 pm 15:55 Sunny 53 11.9 36 2.3 52 52 NNE 15 24 29.97 1015 10 16.09344 0 0
4:15 pm 16:15 Mostly Cloudy 54 12.1 36 2 50 50 NNE 16 26 29.97 1015 10 16.09344 0 0
4:35 pm 16:35 Cloudy 54 12.2 33 0.6 45 45 NNE 16 26 30 1016 10 16.09344 0 0
4:55 pm 16:55 Partly Cloudy 54 12.1 34 1.1 47 47 NNE 14 22 30 1016 10 16.09344 0 0
5:15 pm 17:15 Partly Cloudy 53 11.9 34 1.3 49 49 NNE 13 20 30 1016 10 16.09344 0 0
5:35 pm 17:35 Partly Cloudy 53 11.5 36 2 52 52 NNE 8 13 30 1016 10 16.09344 0 0
5:55 pm 17:55 Mostly Cloudy 53 11.5 35 1.8 52 52 N 8 13 30 1016 10 16.09344 0 0
6:15 pm 18:15 Cloudy 52 10.9 36 2.2 55 55 NNE 6 9 30 1016 10 16.09344 0 0
6:35 pm 18:35 Mostly Cloudy 51 10.3 36 2.1 57 57 N 8 13 30 1016 10 16.09344 0 0
6:55 pm 18:55 Mostly Cloudy 50 10.1 35 1.5 55 55 N 8 13 30 1016 10 16.09344 0 0
7:15 pm 19:15 Mostly Cloudy 49 9.5 35 1.6 58 58 N 6 9 30.03 1017 10 16.09344 0 0
7:35 pm 19:35 Mostly Cloudy 48 8.9 35 1.7 61 61 N 5 7 30.06 1018 10 16.09344 0 0
7:55 pm 19:55 Mostly Cloudy 48 9 35 1.6 60 60 N 3 6 30.06 1018 10 16.09344 0 0
8:15 pm 20:15 Cloudy 48 8.8 35 1.6 61 61 NNW 3 6 30.06 1018 10 16.09344 0 0
8:35 pm 20:35 Cloudy 47 8.2 36 2 65 65 NNW 3 6 30.06 1018 10 16.09344 0 0
8:55 pm 20:55 Mostly Cloudy 46 8 36 2 66 66 NW 3 6 30.09 1019 10 16.09344 0 0
9:15 pm 21:15 Mostly Cloudy 46 8 36 2 66 66 NW 3 6 30.09 1019 10 16.09344 0 0
9:35 pm 21:35 Partly Cloudy 46 7.6 36 2.1 68 68 WNW 3 6 30.09 1019 10 16.09344 0 0
9:55 pm 21:55 Cloudy 46 7.5 36 2.3 70 70 NW 3 6 30.09 1019 10 16.09344 0 0
10:15 pm 22:15 Cloudy 45 7.2 36 2.3 71 71 NNW 3 6 30.09 1019 10 16.09344 0 0
10:35 pm 22:35 Partly Cloudy 45 7.1 36 2.1 71 71 NNW 3 6 30.09 1019 10 16.09344 0 0
10:55 pm 22:55 Partly Cloudy 43 6.3 36 2.2 75 75 NW 5 7 30.12 1020 10 16.09344 0 0
11:15 pm 23:15 Partly Cloudy 44 6.5 36 2 73 73 NW 5 7 30.09 1019 10 16.09344 0 0
11:30 pm 23:30 Mostly Cloudy 44 6.5 36 2.1 74 74 NW 3 6 30.09 1019 10 16.09344 0 0
11:55 pm 23:55 Mostly Cloudy 43 6.1 35 1.9 75 75 WNW 3 6 30.12 1020 10 16.09344 0 0

Powered by AerisWeather